Time,TemperatureF,DewpointF,PressureIn,WindDirection,WindDirectionDegrees,WindSpeedMPH,WindSpeedGustMPH,Humidity,HourlyPrecipIn,Conditions,Clouds,dailyrainin,SoftwareType,DateUTC
2013-01-05 00:29:00,41.1,36.3,30.22,SSE,153,0.0,0.0,83,0.00,,,0.00,Wunderground v.1.15,2013-01-05 08:29:00,
2013-01-05 00:58:00,41.2,36.1,30.23,SSE,153,0.0,0.0,82,0.00,,,0.00,Wunderground v.1.15,2013-01-05 08:58:00,
2013-01-05 01:29:00,40.2,36.1,30.23,SSE,153,0.0,0.0,85,0.00,,,0.00,Wunderground v.1.15,2013-01-05 09:29:00,
2013-01-05 01:58:00,38.6,35.4,30.23,SSE,157,0.0,0.0,88,0.00,,,0.00,Wunderground v.1.15,2013-01-05 09:58:00,
2013-01-05 02:28:00,39.1,35.8,30.22,SSE,157,0.0,0.0,88,0.00,,,0.00,Wunderground v.1.15,2013-01-05 10:28:00,
2013-01-05 02:59:00,38.1,35.4,30.23,WNW,302,1.0,4.0,90,0.00,,,0.00,Wunderground v.1.15,2013-01-05 10:59:00,
2013-01-05 03:28:00,36.3,34.5,30.24,NW,313,3.0,3.0,93,0.00,,,0.00,Wunderground v.1.15,2013-01-05 11:28:00,
2013-01-05 03:59:00,36.8,34.7,30.23,WNW,286,1.0,1.0,92,0.00,,,0.00,Wunderground v.1.15,2013-01-05 11:59:00,
2013-01-05 04:29:00,36.5,34.7,30.23,NW,305,2.0,2.0,93,0.00,,,0.00,Wunderground v.1.15,2013-01-05 12:29:00,
2013-01-05 04:58:00,36.2,34.6,30.23,WNW,298,2.0,2.0,94,0.00,,,0.00,Wunderground v.1.15,2013-01-05 12:58:00,
2013-01-05 05:28:00,35.5,33.9,30.24,WNW,289,0.0,1.0,94,0.00,,,0.00,Wunderground v.1.15,2013-01-05 13:28:00,
2013-01-05 05:59:00,36.8,35.8,30.25,WNW,289,0.0,0.0,96,0.00,,,0.00,Wunderground v.1.15,2013-01-05 13:59:00,
2013-01-05 06:28:00,38.0,36.4,30.25,WNW,289,0.0,0.0,94,0.00,,,0.00,Wunderground v.1.15,2013-01-05 14:28:00,
2013-01-05 06:59:00,38.2,36.6,30.24,WNW,289,0.0,0.0,94,0.00,,,0.00,Wunderground v.1.15,2013-01-05 14:59:00,
2013-01-05 07:29:00,39.0,36.6,30.25,WNW,289,0.0,0.0,91,0.00,,,0.00,Wunderground v.1.15,2013-01-05 15:29:00,
2013-01-05 07:58:00,39.4,36.7,30.25,WNW,289,0.0,0.0,90,0.00,,,0.00,Wunderground v.1.15,2013-01-05 15:58:00,
2013-01-05 08:29:00,40.0,36.7,30.25,WNW,289,0.0,0.0,88,0.00,,,0.00,Wunderground v.1.15,2013-01-05 16:29:00,
2013-01-05 08:59:00,40.7,37.1,30.26,ESE,107,1.0,1.0,87,0.00,,,0.00,Wunderground v.1.15,2013-01-05 16:59:00,
2013-01-05 09:28:00,40.8,37.2,30.24,SE,124,1.0,1.0,87,0.00,,,0.00,Wunderground v.1.15,2013-01-05 17:28:00,
2013-01-05 09:58:00,41.0,37.7,30.22,SSW,196,2.0,2.0,88,0.00,,,0.00,Wunderground v.1.15,2013-01-05 17:58:00,
2013-01-05 10:29:00,41.6,38.6,30.24,SE,143,1.0,5.0,89,0.00,,,0.00,Wunderground v.1.15,2013-01-05 18:29:00,
2013-01-05 10:58:00,43.3,40.0,30.25,ESE,105,0.0,2.0,88,0.00,,,0.00,Wunderground v.1.15,2013-01-05 18:58:00,
2013-01-05 11:28:00,44.1,40.2,30.22,SE,134,2.0,2.0,86,0.00,,,0.00,Wunderground v.1.15,2013-01-05 19:28:00,
2013-01-05 11:58:00,45.0,40.8,30.19,SE,124,2.0,10.0,85,0.00,,,0.00,Wunderground v.1.15,2013-01-05 19:58:00,
2013-01-05 12:28:00,44.5,40.0,30.19,SE,140,1.0,1.0,84,0.00,,,0.00,Wunderground v.1.15,2013-01-05 20:28:00,
2013-01-05 12:59:00,44.0,39.8,30.17,South,185,2.0,2.0,85,0.00,,,0.00,Wunderground v.1.15,2013-01-05 20:59:00,
2013-01-05 13:28:00,44.2,40.0,30.15,SSW,194,2.0,2.0,85,0.00,,,0.00,Wunderground v.1.15,2013-01-05 21:28:00,
2013-01-05 13:59:00,44.3,40.1,30.15,South,182,2.0,2.0,85,0.00,,,0.00,Wunderground v.1.15,2013-01-05 21:59:00,
2013-01-05 14:28:00,44.5,40.3,30.13,SE,144,1.0,2.0,85,0.00,,,0.00,Wunderground v.1.15,2013-01-05 22:28:00,
2013-01-05 14:59:00,43.6,41.1,30.12,SE,144,1.0,1.0,91,0.00,,,0.00,Wunderground v.1.15,2013-01-05 22:59:00,
2013-01-05 15:28:00,42.8,41.5,30.12,SSE,160,1.0,1.0,95,0.04,,,0.03,Wunderground v.1.15,2013-01-05 23:28:00,
2013-01-05 15:59:00,42.5,41.4,30.12,SSW,192,0.0,0.0,96,0.06,,,0.07,Wunderground v.1.15,2013-01-05 23:59:00,
2013-01-05 16:29:00,42.3,41.5,30.11,SSW,192,0.0,0.0,97,0.04,,,0.09,Wunderground v.1.15,2013-01-06 00:29:00,
2013-01-05 16:58:00,42.3,41.8,30.11,SSW,192,0.0,0.0,98,0.00,,,0.10,Wunderground v.1.15,2013-01-06 00:58:00,
2013-01-05 17:28:00,42.3,41.8,30.10,SSE,166,1.0,1.0,98,0.00,,,0.12,Wunderground v.1.15,2013-01-06 01:28:00,
2013-01-05 17:59:00,42.3,41.8,30.10,SE,131,1.0,1.0,98,0.00,,,0.14,Wunderground v.1.15,2013-01-06 01:59:00,
2013-01-05 18:28:00,42.2,41.9,30.09,SSE,156,1.0,3.0,99,0.00,,,0.16,Wunderground v.1.15,2013-01-06 02:28:00,
2013-01-05 18:59:00,42.2,41.9,30.08,SSE,153,1.0,1.0,99,0.09,,,0.19,Wunderground v.1.15,2013-01-06 02:59:00,
2013-01-05 19:58:00,42.1,41.8,30.09,SSE,158,1.0,1.0,99,0.00,,,0.21,Wunderground v.1.15,2013-01-06 03:58:00,
2013-01-05 20:28:00,41.9,41.6,30.09,SE,130,5.0,5.0,99,0.04,,,0.23,Wunderground v.1.15,2013-01-06 04:28:00,
2013-01-05 20:59:00,41.7,41.4,30.09,SSE,147,2.0,2.0,99,0.00,,,0.24,Wunderground v.1.15,2013-01-06 04:59:00,
2013-01-05 21:29:00,41.8,41.5,30.08,South,182,2.0,2.0,99,0.00,,,0.24,Wunderground v.1.15,2013-01-06 05:29:00,
2013-01-05 21:58:00,41.7,41.4,30.08,SSE,166,2.0,2.0,99,0.00,,,0.24,Wunderground v.1.15,2013-01-06 05:58:00,
2013-01-05 22:29:00,41.6,41.3,30.08,South,173,1.0,1.0,99,0.00,,,0.24,Wunderground v.1.15,2013-01-06 06:29:00,
2013-01-05 22:59:00,41.6,41.3,30.08,SE,124,2.0,2.0,99,0.00,,,0.25,Wunderground v.1.15,2013-01-06 06:59:00,
2013-01-05 23:28:00,41.5,41.5,30.09,SSE,155,2.0,2.0,100,0.00,,,0.26,Wunderground v.1.15,2013-01-06 07:28:00,
2013-01-05 23:58:00,41.4,41.1,30.08,SSW,207,2.0,2.0,99,0.00,,,0.27,Wunderground v.1.15,2013-01-06 07:58:00,